N8358U KDCA-KMSY

Flight info

Callsign N8358U
Flight time 2h 15m
Altitude 28000
Route CLTCH3 MAULS Q40 NIOLA MERDN TRSSH1
Aircraft C700/M-SDFGZLB1PBNO2/L

Departure

Time 2026-05-04 19:30
Airport Ronald Reagan Washington National Airport (KDCA)

Arrival

Time 2026-05-04 21:46
Airport Louis Armstrong New Orleans International Airport (KMSY)
Time Latitude Longitude Altitude Speed Heading
2026-05-04 19:11 38.84454 -77.04638 18 ft 0 kts 131°
2026-05-04 19:21 38.84461 -77.04647 18 ft 2 kts 131°
2026-05-04 19:22 38.84472 -77.04663 19 ft 2 kts 131°
2026-05-04 19:22 38.84483 -77.04678 18 ft 2 kts 131°
2026-05-04 19:22 38.84493 -77.04693 20 ft 2 kts 131°
2026-05-04 19:22 38.84495 -77.04697 18 ft 0 kts 131°
2026-05-04 19:23 38.84503 -77.04675 17 ft 5 kts 53°
2026-05-04 19:23 38.84503 -77.04674 17 ft 0 kts 53°
2026-05-04 19:24 38.84510 -77.04663 19 ft 6 kts 53°
2026-05-04 19:24 38.84556 -77.04585 18 ft 16 kts 54°
2026-05-04 19:24 38.84587 -77.04464 18 ft 10 kts 104°
2026-05-04 19:25 38.84566 -77.04374 18 ft 11 kts 102°
2026-05-04 19:25 38.84550 -77.04271 18 ft 13 kts 101°
2026-05-04 19:25 38.84540 -77.04158 19 ft 13 kts 88°
2026-05-04 19:25 38.84560 -77.04045 18 ft 14 kts 58°
2026-05-04 19:26 38.84641 -77.03970 16 ft 15 kts 20°
2026-05-04 19:26 38.84750 -77.03937 15 ft 17 kts 359°
2026-05-04 19:26 38.84878 -77.03948 13 ft 18 kts 356°
2026-05-04 19:26 38.84994 -77.03960 12 ft 17 kts 355°
2026-05-04 19:27 38.85119 -77.03973 13 ft 19 kts 355°
2026-05-04 19:27 38.85247 -77.03985 14 ft 17 kts 355°
2026-05-04 19:27 38.85364 -77.03999 15 ft 17 kts 355°
2026-05-04 19:27 38.85486 -77.04013 17 ft 18 kts 354°
2026-05-04 19:28 38.85609 -77.04036 21 ft 18 kts 352°
2026-05-04 19:28 38.85731 -77.04048 21 ft 18 kts 357°
2026-05-04 19:28 38.85855 -77.04056 19 ft 20 kts 357°
2026-05-04 19:28 38.85999 -77.04032 18 ft 22 kts 18°
2026-05-04 19:29 38.86071 -77.03991 17 ft 9 kts 45°
2026-05-04 19:29 38.86082 -77.03974 16 ft 0 kts 51°
2026-05-04 19:29 38.86087 -77.03965 15 ft 6 kts 59°
2026-05-04 19:29 38.86103 -77.03878 14 ft 10 kts 130°
2026-05-04 19:30 38.86029 -77.03862 15 ft 20 kts 175°
2026-05-04 19:30 38.85623 -77.03823 17 ft 98 kts 176°
2026-05-04 19:30 38.84729 -77.03736 219 ft 149 kts 175°
2026-05-04 19:30 38.83607 -77.03664 1059 ft 175 kts 180°
2026-05-04 19:31 38.82303 -77.03645 2003 ft 196 kts 182°
2026-05-04 19:31 38.80900 -77.03620 3188 ft 211 kts 182°
2026-05-04 19:31 38.79223 -77.03690 3348 ft 274 kts 193°
2026-05-04 19:31 38.77384 -77.04717 4175 ft 301 kts 211°
2026-05-04 19:32 38.75854 -77.06479 6146 ft 289 kts 232°
2026-05-04 19:32 38.74896 -77.08666 8206 ft 278 kts 252°
2026-05-04 19:32 38.74557 -77.11059 10211 ft 266 kts 266°
2026-05-04 19:32 38.74200 -77.13470 11234 ft 290 kts 252°
2026-05-04 19:33 38.73357 -77.15867 12529 ft 296 kts 245°
2026-05-04 19:33 38.72427 -77.18235 13938 ft 300 kts 246°
2026-05-04 19:33 38.71549 -77.20658 15098 ft 306 kts 248°
2026-05-04 19:33 38.70686 -77.23179 16198 ft 313 kts 249°
2026-05-04 19:34 38.69857 -77.25802 17293 ft 320 kts 250°
2026-05-04 19:34 38.69028 -77.28477 18352 ft 327 kts 250°
2026-05-04 19:34 38.68294 -77.30776 19148 ft 332 kts 250°
2026-05-04 19:34 38.67400 -77.33518 20125 ft 336 kts 250°
2026-05-04 19:35 38.66495 -77.36325 21095 ft 341 kts 251°
2026-05-04 19:35 38.65605 -77.39158 22017 ft 346 kts 251°
2026-05-04 19:35 38.64701 -77.42037 22928 ft 351 kts 251°
2026-05-04 19:35 38.63765 -77.44953 23767 ft 356 kts 251°
2026-05-04 19:36 38.62821 -77.47857 24513 ft 359 kts 251°
2026-05-04 19:36 38.61868 -77.50826 25275 ft 362 kts 251°
2026-05-04 19:36 38.60917 -77.53830 26024 ft 365 kts 251°
2026-05-04 19:36 38.59955 -77.56852 26755 ft 368 kts 251°
2026-05-04 19:37 38.58972 -77.59889 27478 ft 371 kts 251°
2026-05-04 19:37 38.57982 -77.62935 27933 ft 381 kts 251°
2026-05-04 19:37 38.56951 -77.66161 27937 ft 402 kts 251°
2026-05-04 19:37 38.55874 -77.69544 27944 ft 421 kts 251°
2026-05-04 19:38 38.54728 -77.73077 27948 ft 439 kts 251°
2026-05-04 19:38 38.53496 -77.76700 27949 ft 447 kts 248°
2026-05-04 19:38 38.51910 -77.80138 27957 ft 452 kts 239°
2026-05-04 19:38 38.49950 -77.83298 27955 ft 456 kts 233°
2026-05-04 19:39 38.47788 -77.86283 27956 ft 457 kts 231°
2026-05-04 19:39 38.45618 -77.89238 27955 ft 456 kts 232°
2026-05-04 19:39 38.44296 -77.91304 27952 ft 451 kts 239°
2026-05-04 19:39 38.42592 -77.94652 27952 ft 448 kts 242°
2026-05-04 19:40 38.40244 -77.99006 27956 ft 451 kts 238°
2026-05-04 19:40 38.38313 -78.02160 27951 ft 451 kts 236°
2026-05-04 19:40 38.37040 -78.04264 27953 ft 450 kts 238°
2026-05-04 19:40 38.35235 -78.07509 27954 ft 448 kts 240°
2026-05-04 19:41 38.33533 -78.10837 27954 ft 447 kts 242°
2026-05-04 19:41 38.31814 -78.14143 27953 ft 447 kts 240°
2026-05-04 19:41 38.29977 -78.17353 27952 ft 449 kts 238°
2026-05-04 19:41 38.28073 -78.20505 27951 ft 449 kts 238°
2026-05-04 19:42 38.26231 -78.23707 27949 ft 447 kts 240°
2026-05-04 19:42 38.24497 -78.26975 27944 ft 445 kts 241°
2026-05-04 19:42 38.22779 -78.30255 27941 ft 446 kts 240°
2026-05-04 19:42 38.20979 -78.33467 27966 ft 447 kts 238°
2026-05-04 19:43 38.19103 -78.36625 27964 ft 446 kts 238°
2026-05-04 19:43 38.17513 -78.39962 27963 ft 440 kts 248°
2026-05-04 19:43 38.16282 -78.43514 27963 ft 437 kts 252°
2026-05-04 19:43 38.15230 -78.47076 27965 ft 436 kts 253°
2026-05-04 19:44 38.14143 -78.50691 27964 ft 437 kts 252°
2026-05-04 19:44 38.12981 -78.54260 27966 ft 437 kts 251°
2026-05-04 19:44 38.11796 -78.57825 27962 ft 437 kts 251°
2026-05-04 19:44 38.10669 -78.61429 27963 ft 436 kts 253°
2026-05-04 19:45 38.09603 -78.65039 27960 ft 436 kts 253°
2026-05-04 19:45 38.08534 -78.68587 27961 ft 436 kts 252°
2026-05-04 19:45 38.07385 -78.72156 27961 ft 437 kts 251°
2026-05-04 19:45 38.06205 -78.75720 27962 ft 437 kts 251°
2026-05-04 19:46 38.05072 -78.79287 27967 ft 436 kts 252°
2026-05-04 19:46 38.03985 -78.82887 27967 ft 435 kts 253°
2026-05-04 19:46 38.02897 -78.86467 27968 ft 435 kts 252°
2026-05-04 19:46 38.01755 -78.90023 27968 ft 435 kts 251°
2026-05-04 19:47 38.00600 -78.93522 27965 ft 436 kts 251°
2026-05-04 19:47 37.99459 -78.97087 27965 ft 436 kts 252°
2026-05-04 19:47 37.98362 -79.00665 27968 ft 436 kts 252°
2026-05-04 19:47 37.97263 -79.04241 27961 ft 436 kts 252°
2026-05-04 19:48 37.96117 -79.07804 27968 ft 436 kts 251°
2026-05-04 19:48 37.94944 -79.11361 27967 ft 437 kts 251°
2026-05-04 19:48 37.93798 -79.14921 27962 ft 436 kts 251°
2026-05-04 19:48 37.92685 -79.18505 27958 ft 436 kts 252°
2026-05-04 19:49 37.91573 -79.22082 27959 ft 436 kts 251°
2026-05-04 19:49 37.90423 -79.25647 27954 ft 437 kts 251°
2026-05-04 19:49 37.89268 -79.29147 27950 ft 437 kts 251°
2026-05-04 19:49 37.88067 -79.32677 27944 ft 438 kts 247°
2026-05-04 19:50 37.86487 -79.36003 27946 ft 442 kts 240°
2026-05-04 19:50 37.84784 -79.39244 27945 ft 441 kts 241°
2026-05-04 19:50 37.83185 -79.42563 27945 ft 441 kts 243°
2026-05-04 19:50 37.81618 -79.45899 27945 ft 441 kts 242°
2026-05-04 19:51 37.79963 -79.49174 27947 ft 443 kts 240°
2026-05-04 19:51 37.78222 -79.52396 27947 ft 444 kts 239°
2026-05-04 19:51 37.76504 -79.55629 27946 ft 444 kts 240°
2026-05-04 19:51 37.74888 -79.58897 27951 ft 443 kts 242°
2026-05-04 19:52 37.73295 -79.62223 27956 ft 443 kts 242°
2026-05-04 19:52 37.71637 -79.65530 27958 ft 444 kts 240°
2026-05-04 19:52 37.69911 -79.68772 27968 ft 445 kts 239°
2026-05-04 19:52 37.68180 -79.72020 27970 ft 445 kts 240°
2026-05-04 19:53 37.66519 -79.75306 27971 ft 445 kts 242°
2026-05-04 19:53 37.64894 -79.78641 27988 ft 445 kts 242°
2026-05-04 19:53 37.63239 -79.81944 27987 ft 446 kts 240°
2026-05-04 19:53 37.61520 -79.85206 27991 ft 446 kts 239°
2026-05-04 19:54 37.59787 -79.88453 27989 ft 446 kts 240°
2026-05-04 19:54 37.58096 -79.91746 27995 ft 446 kts 241°
2026-05-04 19:54 37.56479 -79.95013 27993 ft 446 kts 242°
2026-05-04 19:54 37.54820 -79.98323 27996 ft 447 kts 241°
2026-05-04 19:55 37.53107 -80.01597 27996 ft 448 kts 240°
2026-05-04 19:55 37.51366 -80.04854 27995 ft 448 kts 240°
2026-05-04 19:55 37.49654 -80.08141 27999 ft 448 kts 241°
2026-05-04 19:55 37.47991 -80.11453 27996 ft 447 kts 242°
2026-05-04 19:56 37.46327 -80.14764 27994 ft 448 kts 241°
2026-05-04 19:56 37.44617 -80.18050 27997 ft 449 kts 240°
2026-05-04 19:56 37.42867 -80.21320 27992 ft 449 kts 240°
2026-05-04 19:56 37.41137 -80.24604 27993 ft 449 kts 240°
2026-05-04 19:57 37.39477 -80.27866 28022 ft 448 kts 241°
2026-05-04 19:57 37.36098 -80.34468 28034 ft 449 kts 240°
2026-05-04 19:58 37.32615 -80.41003 28039 ft 450 kts 240°
2026-05-04 19:58 37.29228 -80.47615 28060 ft 449 kts 241°
2026-05-04 19:59 37.25865 -80.54235 28040 ft 449 kts 242°
2026-05-04 19:59 37.22668 -80.60968 28013 ft 449 kts 243°
2026-05-04 20:00 37.19472 -80.67638 28029 ft 449 kts 242°
2026-05-04 20:00 37.16191 -80.74331 28020 ft 448 kts 243°
2026-05-04 20:01 37.13030 -80.81022 28019 ft 448 kts 243°
2026-05-04 20:01 37.09759 -80.87685 28012 ft 448 kts 242°
2026-05-04 20:02 37.06519 -80.94376 28005 ft 448 kts 243°
2026-05-04 20:02 37.04926 -80.97738 28000 ft 449 kts 243°
2026-05-04 20:02 37.03322 -81.01042 27999 ft 449 kts 242°
2026-05-04 20:03 37.00023 -81.07689 28026 ft 450 kts 242°
2026-05-04 20:03 36.96801 -81.14410 28051 ft 450 kts 243°
2026-05-04 20:04 36.93515 -81.21091 28059 ft 451 kts 242°
2026-05-04 20:04 36.90217 -81.27777 28067 ft 451 kts 243°
2026-05-04 20:05 36.87005 -81.34440 28068 ft 451 kts 242°
2026-05-04 20:05 36.83672 -81.41095 28066 ft 452 kts 242°
2026-05-04 20:06 36.80408 -81.47794 28053 ft 451 kts 243°
2026-05-04 20:06 36.77122 -81.54466 28037 ft 451 kts 242°
2026-05-04 20:07 36.73793 -81.61102 28020 ft 451 kts 242°
2026-05-04 20:07 36.70532 -81.67713 28004 ft 450 kts 241°
2026-05-04 20:08 36.67084 -81.74207 28015 ft 449 kts 240°
2026-05-04 20:08 36.63766 -81.80780 28019 ft 447 kts 242°
2026-05-04 20:09 36.60429 -81.87313 28023 ft 448 kts 240°
2026-05-04 20:09 36.57004 -81.93784 28023 ft 447 kts 241°
2026-05-04 20:10 36.53715 -82.00346 28020 ft 446 kts 242°
2026-05-04 20:10 36.50323 -82.06781 28016 ft 447 kts 240°
2026-05-04 20:11 36.46956 -82.13263 28001 ft 445 kts 242°
2026-05-04 20:11 36.43636 -82.19776 28005 ft 446 kts 240°
2026-05-04 20:12 36.40230 -82.26152 28007 ft 445 kts 240°
2026-05-04 20:12 36.36906 -82.32647 28008 ft 444 kts 241°
2026-05-04 20:13 36.33535 -82.39080 28004 ft 445 kts 240°
2026-05-04 20:13 36.30135 -82.45485 28003 ft 444 kts 241°
2026-05-04 20:14 36.26824 -82.51945 28000 ft 444 kts 240°
2026-05-04 20:14 36.25139 -82.55112 27999 ft 444 kts 240°
2026-05-04 20:14 36.23421 -82.58288 27999 ft 444 kts 240°
2026-05-04 20:15 36.20063 -82.64716 28002 ft 443 kts 241°
2026-05-04 20:15 36.16712 -82.71122 27999 ft 444 kts 240°
2026-05-04 20:15 36.14988 -82.74302 27997 ft 444 kts 240°
2026-05-04 20:16 36.13309 -82.77438 28001 ft 443 kts 240°
2026-05-04 20:16 36.09981 -82.83851 28004 ft 443 kts 241°
2026-05-04 20:17 36.06572 -82.90211 28000 ft 443 kts 240°
2026-05-04 20:17 36.04857 -82.93384 27997 ft 443 kts 240°
2026-05-04 20:17 36.03174 -82.96581 28000 ft 443 kts 241°
2026-05-04 20:17 36.01511 -82.99784 27992 ft 443 kts 241°
2026-05-04 20:18 35.99823 -83.02976 27996 ft 444 kts 240°
2026-05-04 20:18 35.98103 -83.06143 27989 ft 444 kts 239°
2026-05-04 20:18 35.96378 -83.09309 27990 ft 444 kts 240°
2026-05-04 20:18 35.94698 -83.12465 27994 ft 444 kts 240°
2026-05-04 20:19 35.93024 -83.15670 27993 ft 444 kts 241°
2026-05-04 20:19 35.91342 -83.18874 27990 ft 444 kts 241°
2026-05-04 20:19 35.89702 -83.22105 27991 ft 443 kts 242°
2026-05-04 20:19 35.88104 -83.25359 27991 ft 443 kts 243°
2026-05-04 20:20 35.86535 -83.28636 27989 ft 443 kts 243°
2026-05-04 20:20 35.84955 -83.31886 27997 ft 443 kts 242°
2026-05-04 20:20 35.83332 -83.35118 27996 ft 443 kts 241°
2026-05-04 20:20 35.81700 -83.38331 27995 ft 443 kts 242°
2026-05-04 20:21 35.80093 -83.41571 27994 ft 443 kts 242°
2026-05-04 20:21 35.78520 -83.44828 27994 ft 443 kts 243°
2026-05-04 20:21 35.75332 -83.51281 27990 ft 444 kts 241°
2026-05-04 20:22 35.73686 -83.54501 27995 ft 444 kts 241°
2026-05-04 20:22 35.72005 -83.57688 27991 ft 444 kts 240°
2026-05-04 20:22 35.70293 -83.60848 27991 ft 445 kts 239°
2026-05-04 20:22 35.68551 -83.64008 27991 ft 445 kts 239°
2026-05-04 20:23 35.66817 -83.67183 27991 ft 445 kts 240°
2026-05-04 20:23 35.65117 -83.70363 27992 ft 445 kts 240°
2026-05-04 20:23 35.63441 -83.73517 27993 ft 445 kts 240°
2026-05-04 20:23 35.61726 -83.76685 27994 ft 446 kts 239°
2026-05-04 20:24 35.59980 -83.79843 27998 ft 446 kts 239°
2026-05-04 20:24 35.58236 -83.83003 27994 ft 446 kts 239°
2026-05-04 20:24 35.56517 -83.86186 27992 ft 446 kts 240°
2026-05-04 20:24 35.54818 -83.89374 27998 ft 446 kts 240°
2026-05-04 20:25 35.53120 -83.92516 27998 ft 446 kts 239°
2026-05-04 20:25 35.51377 -83.95664 27998 ft 446 kts 239°
2026-05-04 20:25 35.49627 -83.98811 27997 ft 446 kts 239°
2026-05-04 20:25 35.47901 -84.01975 27998 ft 446 kts 240°
2026-05-04 20:26 35.44480 -84.08331 28000 ft 447 kts 239°
2026-05-04 20:26 35.42724 -84.11502 27999 ft 447 kts 239°
2026-05-04 20:26 35.40963 -84.14650 28001 ft 447 kts 239°
2026-05-04 20:27 35.39219 -84.17813 27998 ft 447 kts 239°
2026-05-04 20:27 35.37503 -84.20991 28002 ft 447 kts 240°
2026-05-04 20:27 35.34059 -84.27293 28001 ft 448 kts 239°
2026-05-04 20:28 35.30533 -84.33590 28007 ft 448 kts 239°
2026-05-04 20:28 35.27666 -84.38871 28006 ft 448 kts 239°
2026-05-04 20:29 35.24160 -84.45203 28006 ft 449 kts 238°
2026-05-04 20:29 35.20630 -84.51505 28005 ft 449 kts 239°
2026-05-04 20:30 35.17165 -84.57863 27992 ft 449 kts 239°
2026-05-04 20:30 35.15401 -84.61015 27989 ft 449 kts 238°
2026-05-04 20:30 35.13618 -84.64152 27987 ft 450 kts 238°
2026-05-04 20:31 35.11848 -84.67304 27984 ft 450 kts 239°
2026-05-04 20:31 35.10124 -84.70445 27987 ft 450 kts 239°
2026-05-04 20:31 35.08383 -84.73630 27987 ft 450 kts 239°
2026-05-04 20:31 35.06622 -84.76786 27988 ft 451 kts 238°
2026-05-04 20:32 35.04826 -84.79937 27986 ft 451 kts 238°
2026-05-04 20:32 35.03040 -84.83083 27991 ft 451 kts 238°
2026-05-04 20:32 35.01281 -84.86255 27990 ft 451 kts 239°
2026-05-04 20:32 34.99536 -84.89440 27993 ft 451 kts 239°
2026-05-04 20:33 34.95976 -84.95759 28002 ft 452 kts 238°
2026-05-04 20:33 34.92395 -85.02074 28002 ft 452 kts 239°
2026-05-04 20:34 34.88904 -85.08390 28000 ft 452 kts 238°
2026-05-04 20:34 34.85295 -85.14683 28002 ft 453 kts 238°
2026-05-04 20:35 34.81737 -85.21018 28006 ft 452 kts 239°
2026-05-04 20:35 34.78178 -85.27342 28001 ft 453 kts 237°
2026-05-04 20:36 34.74240 -85.33292 28006 ft 454 kts 233°
2026-05-04 20:36 34.70329 -85.39334 28004 ft 453 kts 236°
2026-05-04 20:37 34.66481 -85.45405 28004 ft 454 kts 234°
2026-05-04 20:37 34.62462 -85.51349 28012 ft 453 kts 234°
2026-05-04 20:38 34.58639 -85.57372 28012 ft 453 kts 236°
2026-05-04 20:38 34.54708 -85.63366 28010 ft 454 kts 233°
2026-05-04 20:39 34.50726 -85.69320 28011 ft 454 kts 235°
2026-05-04 20:39 34.46872 -85.75387 28010 ft 454 kts 235°
2026-05-04 20:40 34.42879 -85.81318 28005 ft 454 kts 233°
2026-05-04 20:40 34.38952 -85.87305 28013 ft 453 kts 235°
2026-05-04 20:41 34.35082 -85.93283 28004 ft 454 kts 234°
2026-05-04 20:41 34.31067 -85.99194 28011 ft 454 kts 234°
2026-05-04 20:42 34.27170 -86.05218 28014 ft 454 kts 235°
2026-05-04 20:42 34.23202 -86.11182 28013 ft 455 kts 233°
2026-05-04 20:43 34.19197 -86.17124 28016 ft 455 kts 234°
2026-05-04 20:43 34.15316 -86.23112 28020 ft 456 kts 234°
2026-05-04 20:44 34.11286 -86.29040 28018 ft 456 kts 233°
2026-05-04 20:44 34.07438 -86.34833 28017 ft 456 kts 235°
2026-05-04 20:45 34.03480 -86.40845 28018 ft 457 kts 233°
2026-05-04 20:45 33.99443 -86.46733 28022 ft 457 kts 234°
2026-05-04 20:46 33.95495 -86.52741 28024 ft 457 kts 234°
2026-05-04 20:46 33.91472 -86.58705 28021 ft 459 kts 233°
2026-05-04 20:47 33.87447 -86.64612 28023 ft 458 kts 234°
2026-05-04 20:47 33.83489 -86.70624 28033 ft 458 kts 234°
2026-05-04 20:48 33.79425 -86.76528 28035 ft 457 kts 233°
2026-05-04 20:48 33.75454 -86.82434 28038 ft 455 kts 235°
2026-05-04 20:49 33.71489 -86.88365 28037 ft 455 kts 234°
2026-05-04 20:49 33.67432 -86.94213 28030 ft 453 kts 234°
2026-05-04 20:50 33.63529 -87.00078 28020 ft 452 kts 235°
2026-05-04 20:50 33.59543 -87.05899 28008 ft 451 kts 234°
2026-05-04 20:51 33.55547 -87.11705 27997 ft 450 kts 235°
2026-05-04 20:51 33.53596 -87.14638 27996 ft 449 kts 235°
2026-05-04 20:51 33.51634 -87.17558 27994 ft 450 kts 234°
2026-05-04 20:52 33.49633 -87.20446 27995 ft 450 kts 234°
2026-05-04 20:52 33.47618 -87.23318 27991 ft 450 kts 234°
2026-05-04 20:52 33.45630 -87.26208 27988 ft 449 kts 235°
2026-05-04 20:52 33.43678 -87.29118 27991 ft 448 kts 236°
2026-05-04 20:53 33.41723 -87.32032 27988 ft 449 kts 235°
2026-05-04 20:53 33.39732 -87.34919 27980 ft 449 kts 234°
2026-05-04 20:53 33.37720 -87.37776 27984 ft 449 kts 234°
2026-05-04 20:53 33.35749 -87.40608 27982 ft 448 kts 235°
2026-05-04 20:54 33.33779 -87.43514 27987 ft 447 kts 236°
2026-05-04 20:54 33.31825 -87.46423 27985 ft 447 kts 236°
2026-05-04 20:54 33.29847 -87.49305 27989 ft 448 kts 235°
2026-05-04 20:54 33.27844 -87.52149 27990 ft 448 kts 234°
2026-05-04 20:55 33.25838 -87.55002 27992 ft 447 kts 235°
2026-05-04 20:55 33.23867 -87.57876 27993 ft 446 kts 236°
2026-05-04 20:55 33.21921 -87.60763 27994 ft 446 kts 236°
2026-05-04 20:55 33.19984 -87.63597 27995 ft 447 kts 235°
2026-05-04 20:56 33.17984 -87.66442 28000 ft 447 kts 235°
2026-05-04 20:56 33.15977 -87.69273 27997 ft 446 kts 235°
2026-05-04 20:56 33.12047 -87.74998 28001 ft 445 kts 236°
2026-05-04 20:57 33.08102 -87.80708 28003 ft 446 kts 235°
2026-05-04 20:57 33.04103 -87.86361 28011 ft 445 kts 236°
2026-05-04 20:58 33.00198 -87.92077 28012 ft 444 kts 236°
2026-05-04 20:58 32.96218 -87.97718 28014 ft 445 kts 236°
2026-05-04 20:59 32.92280 -88.03336 28021 ft 444 kts 237°
2026-05-04 20:59 32.88368 -88.09016 28034 ft 444 kts 236°
2026-05-04 21:00 32.84356 -88.14631 28031 ft 444 kts 236°
2026-05-04 21:00 32.80429 -88.20291 28033 ft 443 kts 237°
2026-05-04 21:01 32.76472 -88.25932 28034 ft 444 kts 236°
2026-05-04 21:01 32.72500 -88.31490 28039 ft 443 kts 237°
2026-05-04 21:02 32.68585 -88.37149 28042 ft 443 kts 237°
2026-05-04 21:02 32.64591 -88.42732 28040 ft 444 kts 237°
2026-05-04 21:03 32.60618 -88.48350 28042 ft 444 kts 238°
2026-05-04 21:03 32.56667 -88.53998 28040 ft 445 kts 237°
2026-05-04 21:04 32.52629 -88.59585 28019 ft 446 kts 237°
2026-05-04 21:04 32.48698 -88.65197 28022 ft 445 kts 238°
2026-05-04 21:05 32.44706 -88.70795 28011 ft 446 kts 237°
2026-05-04 21:05 32.40694 -88.76368 28010 ft 447 kts 238°
2026-05-04 21:06 32.36428 -88.81808 28012 ft 460 kts 228°
2026-05-04 21:06 32.33920 -88.84149 27757 ft 453 kts 226°
2026-05-04 21:06 32.31506 -88.86439 27467 ft 437 kts 229°
2026-05-04 21:07 32.29247 -88.88791 27177 ft 428 kts 230°
2026-05-04 21:07 32.27006 -88.91096 26891 ft 425 kts 228°
2026-05-04 21:07 32.24706 -88.93277 26613 ft 422 kts 226°
2026-05-04 21:07 32.22391 -88.95382 26332 ft 417 kts 226°
2026-05-04 21:08 32.20143 -88.97525 26058 ft 411 kts 228°
2026-05-04 21:08 32.18010 -88.99690 25791 ft 407 kts 229°
2026-05-04 21:08 32.15860 -89.01867 25524 ft 405 kts 228°
2026-05-04 21:08 32.13678 -89.03959 25260 ft 404 kts 226°
2026-05-04 21:09 32.11473 -89.06004 25000 ft 401 kts 226°
2026-05-04 21:09 32.09314 -89.08060 24742 ft 398 kts 227°
2026-05-04 21:09 32.07198 -89.10164 24487 ft 397 kts 228°
2026-05-04 21:09 32.05111 -89.12244 24237 ft 398 kts 227°
2026-05-04 21:10 32.02966 -89.14307 23982 ft 398 kts 226°
2026-05-04 21:10 32.00795 -89.16343 23736 ft 398 kts 226°
2026-05-04 21:10 31.98640 -89.18393 23466 ft 397 kts 226°
2026-05-04 21:10 31.96520 -89.20471 23169 ft 396 kts 227°
2026-05-04 21:11 31.94404 -89.22557 22878 ft 396 kts 226°
2026-05-04 21:11 31.92270 -89.24611 22587 ft 396 kts 226°
2026-05-04 21:11 31.90150 -89.26610 22304 ft 395 kts 225°
2026-05-04 21:11 31.88008 -89.28644 22021 ft 394 kts 226°
2026-05-04 21:12 31.85891 -89.30701 21740 ft 393 kts 226°
2026-05-04 21:12 31.83788 -89.32760 21462 ft 393 kts 226°
2026-05-04 21:12 31.81674 -89.34795 21185 ft 393 kts 225°
2026-05-04 21:12 31.79537 -89.36814 20912 ft 393 kts 225°
2026-05-04 21:13 31.77406 -89.38832 20645 ft 393 kts 225°
2026-05-04 21:13 31.75296 -89.40864 20375 ft 393 kts 226°
2026-05-04 21:13 31.73190 -89.42914 20105 ft 393 kts 226°
2026-05-04 21:13 31.71101 -89.44926 19851 ft 393 kts 225°
2026-05-04 21:14 31.68971 -89.46943 19601 ft 394 kts 225°
2026-05-04 21:14 31.66834 -89.48959 19341 ft 394 kts 225°
2026-05-04 21:14 31.64708 -89.50989 19087 ft 393 kts 225°
2026-05-04 21:14 31.62592 -89.53038 18835 ft 394 kts 225°
2026-05-04 21:15 31.60476 -89.55075 18582 ft 394 kts 225°
2026-05-04 21:15 31.58342 -89.57098 18331 ft 394 kts 225°
2026-05-04 21:15 31.56192 -89.59120 18042 ft 394 kts 224°
2026-05-04 21:15 31.54065 -89.61138 17758 ft 394 kts 225°
2026-05-04 21:16 31.51972 -89.63153 17468 ft 393 kts 225°
2026-05-04 21:16 31.49856 -89.65190 17194 ft 393 kts 224°
2026-05-04 21:16 31.47730 -89.67207 16916 ft 393 kts 224°
2026-05-04 21:16 31.45589 -89.69216 16641 ft 393 kts 223°
2026-05-04 21:17 31.44148 -89.70570 16456 ft 393 kts 223°
2026-05-04 21:17 31.42055 -89.72559 16190 ft 393 kts 224°
2026-05-04 21:17 31.39941 -89.74589 15923 ft 392 kts 224°
2026-05-04 21:17 31.37827 -89.76611 15653 ft 393 kts 223°
2026-05-04 21:18 31.35702 -89.78616 15381 ft 393 kts 223°
2026-05-04 21:18 31.33572 -89.80606 15120 ft 385 kts 222°
2026-05-04 21:18 31.31522 -89.82524 14859 ft 369 kts 223°
2026-05-04 21:18 31.29553 -89.84394 14454 ft 360 kts 223°
2026-05-04 21:19 31.27630 -89.86245 14057 ft 356 kts 223°
2026-05-04 21:19 31.25723 -89.88064 13632 ft 352 kts 222°
2026-05-04 21:19 31.23815 -89.89849 13185 ft 350 kts 221°
2026-05-04 21:19 31.21943 -89.91591 12755 ft 348 kts 221°
2026-05-04 21:20 31.20058 -89.93368 12323 ft 347 kts 221°
2026-05-04 21:20 31.18193 -89.95143 11899 ft 346 kts 222°
2026-05-04 21:20 31.16321 -89.96922 11481 ft 345 kts 221°
2026-05-04 21:20 31.14454 -89.98676 11068 ft 344 kts 221°
2026-05-04 21:21 31.12586 -90.00421 10661 ft 344 kts 220°
2026-05-04 21:21 31.10721 -90.02167 10260 ft 343 kts 220°
2026-05-04 21:21 31.08870 -90.03914 9852 ft 331 kts 220°
2026-05-04 21:21 31.07265 -90.05415 9404 ft 272 kts 220°
2026-05-04 21:22 31.05811 -90.06778 8965 ft 269 kts 220°
2026-05-04 21:22 31.04360 -90.08159 8509 ft 267 kts 220°
2026-05-04 21:22 31.02921 -90.09518 8075 ft 265 kts 220°
2026-05-04 21:22 31.01486 -90.10855 7652 ft 263 kts 219°
2026-05-04 21:23 31.00058 -90.12185 7227 ft 261 kts 219°
2026-05-04 21:23 30.98652 -90.13508 6815 ft 258 kts 219°
2026-05-04 21:23 30.97275 -90.14803 6417 ft 256 kts 219°
2026-05-04 21:23 30.95891 -90.16102 5982 ft 254 kts 219°
2026-05-04 21:24 30.94513 -90.17390 5550 ft 252 kts 218°
2026-05-04 21:24 30.93151 -90.18664 5135 ft 251 kts 218°
2026-05-04 21:24 30.91810 -90.19918 4985 ft 241 kts 218°
2026-05-04 21:24 30.90542 -90.21099 4973 ft 226 kts 218°
2026-05-04 21:25 30.89248 -90.22025 4975 ft 212 kts 202°
2026-05-04 21:25 30.87857 -90.22496 4963 ft 207 kts 191°
2026-05-04 21:25 30.86425 -90.22592 4971 ft 207 kts 178°
2026-05-04 21:25 30.84988 -90.22438 4970 ft 207 kts 176°
2026-05-04 21:26 30.83563 -90.22325 4975 ft 204 kts 179°
2026-05-04 21:26 30.82142 -90.22251 4972 ft 203 kts 179°
2026-05-04 21:26 30.80738 -90.22163 4973 ft 202 kts 178°
2026-05-04 21:26 30.79335 -90.21964 4978 ft 204 kts 172°
2026-05-04 21:27 30.77944 -90.21618 4973 ft 204 kts 169°
2026-05-04 21:27 30.76560 -90.21281 4976 ft 203 kts 171°
2026-05-04 21:27 30.75187 -90.21004 4976 ft 203 kts 173°
2026-05-04 21:27 30.73790 -90.20748 4975 ft 203 kts 173°
2026-05-04 21:28 30.72400 -90.20488 4976 ft 202 kts 173°
2026-05-04 21:28 30.71008 -90.20223 4931 ft 204 kts 173°
2026-05-04 21:28 30.69571 -90.19953 4682 ft 213 kts 173°
2026-05-04 21:28 30.68089 -90.19677 4442 ft 218 kts 173°
2026-05-04 21:29 30.66567 -90.19400 4202 ft 224 kts 173°
2026-05-04 21:29 30.65006 -90.19108 3971 ft 230 kts 173°
2026-05-04 21:29 30.63414 -90.18812 3736 ft 233 kts 173°
2026-05-04 21:29 30.61796 -90.18519 3507 ft 239 kts 172°
2026-05-04 21:30 30.60144 -90.18227 3268 ft 241 kts 172°
2026-05-04 21:30 30.58493 -90.17933 3041 ft 244 kts 172°
2026-05-04 21:30 30.56809 -90.17632 2798 ft 245 kts 172°
2026-05-04 21:30 30.55124 -90.17333 2562 ft 245 kts 172°
2026-05-04 21:31 30.51747 -90.16722 2068 ft 246 kts 172°
2026-05-04 21:31 30.50075 -90.16407 1987 ft 238 kts 172°
2026-05-04 21:31 30.48468 -90.16105 1982 ft 230 kts 172°
2026-05-04 21:32 30.46914 -90.15809 1982 ft 222 kts 172°
2026-05-04 21:32 30.45419 -90.15540 1971 ft 218 kts 173°
2026-05-04 21:32 30.43933 -90.15267 1984 ft 216 kts 172°
2026-05-04 21:32 30.42448 -90.14979 1975 ft 215 kts 172°
2026-05-04 21:33 30.40992 -90.14704 1987 ft 209 kts 172°
2026-05-04 21:33 30.39564 -90.14441 1989 ft 205 kts 172°
2026-05-04 21:33 30.38161 -90.14175 1978 ft 202 kts 171°
2026-05-04 21:33 30.36796 -90.13909 1981 ft 197 kts 172°
2026-05-04 21:34 30.35453 -90.13655 1979 ft 193 kts 172°
2026-05-04 21:34 30.34135 -90.13406 1982 ft 191 kts 172°
2026-05-04 21:34 30.32846 -90.13160 1985 ft 190 kts 172°
2026-05-04 21:34 30.31540 -90.12913 1982 ft 190 kts 172°
2026-05-04 21:35 30.30230 -90.12667 1982 ft 191 kts 172°
2026-05-04 21:35 30.28917 -90.12419 1988 ft 192 kts 172°
2026-05-04 21:35 30.27594 -90.12172 1988 ft 193 kts 172°
2026-05-04 21:35 30.26267 -90.11926 1988 ft 193 kts 172°
2026-05-04 21:36 30.24946 -90.11679 1992 ft 192 kts 172°
2026-05-04 21:36 30.23623 -90.11430 1991 ft 193 kts 172°
2026-05-04 21:36 30.22292 -90.11182 1994 ft 193 kts 171°
2026-05-04 21:36 30.20961 -90.10936 1990 ft 194 kts 172°
2026-05-04 21:37 30.19630 -90.10687 1994 ft 194 kts 172°
2026-05-04 21:37 30.18293 -90.10436 1997 ft 195 kts 172°
2026-05-04 21:37 30.16966 -90.10187 2000 ft 196 kts 172°
2026-05-04 21:37 30.15605 -90.09934 1993 ft 195 kts 172°
2026-05-04 21:38 30.14288 -90.09688 1996 ft 194 kts 172°
2026-05-04 21:38 30.12955 -90.09439 1996 ft 194 kts 172°
2026-05-04 21:38 30.11625 -90.09194 1998 ft 194 kts 172°
2026-05-04 21:38 30.10290 -90.08945 2001 ft 194 kts 172°
2026-05-04 21:39 30.08954 -90.08694 2001 ft 195 kts 172°
2026-05-04 21:39 30.07608 -90.08440 2000 ft 196 kts 172°
2026-05-04 21:39 30.06255 -90.08185 2000 ft 197 kts 172°
2026-05-04 21:39 30.04914 -90.07932 2005 ft 198 kts 172°
2026-05-04 21:40 30.03554 -90.07674 1998 ft 199 kts 172°
2026-05-04 21:40 30.02193 -90.07418 2007 ft 198 kts 172°
2026-05-04 21:40 30.00822 -90.07170 2000 ft 201 kts 172°
2026-05-04 21:40 29.99435 -90.06915 1999 ft 202 kts 172°
2026-05-04 21:41 29.98043 -90.06661 2005 ft 203 kts 171°
2026-05-04 21:41 29.96659 -90.06408 2013 ft 204 kts 172°
2026-05-04 21:41 29.95246 -90.06145 2016 ft 205 kts 172°
2026-05-04 21:41 29.93844 -90.05882 2009 ft 203 kts 172°
2026-05-04 21:42 29.92477 -90.06066 1979 ft 199 kts 209°
2026-05-04 21:42 29.91704 -90.07285 2089 ft 188 kts 254°
2026-05-04 21:42 29.91865 -90.08812 1508 ft 206 kts 293°
2026-05-04 21:42 29.92735 -90.10095 1381 ft 200 kts 314°
2026-05-04 21:43 29.93772 -90.11119 1331 ft 192 kts 319°
2026-05-04 21:43 29.94806 -90.12085 1217 ft 191 kts 317°
2026-05-04 21:43 29.95822 -90.13064 998 ft 194 kts 315°
2026-05-04 21:43 29.96504 -90.14325 928 ft 181 kts 283°
2026-05-04 21:44 29.96781 -90.15744 817 ft 182 kts 278°
2026-05-04 21:44 29.97081 -90.17172 813 ft 182 kts 280°
2026-05-04 21:44 29.97412 -90.18577 871 ft 181 kts 281°
2026-05-04 21:44 29.97739 -90.19990 859 ft 181 kts 281°
2026-05-04 21:45 29.98080 -90.21392 738 ft 179 kts 282°
2026-05-04 21:45 29.98405 -90.22767 434 ft 180 kts 279°
2026-05-04 21:45 29.98693 -90.24161 232 ft 176 kts 282°
2026-05-04 21:45 29.99006 -90.25456 21 ft 159 kts 285°
2026-05-04 21:46 29.99273 -90.26547 8 ft 116 kts 286°
2026-05-04 21:46 29.99447 -90.27257 6 ft 70 kts 285°
2026-05-04 21:46 29.99536 -90.27616 1 ft 9 kts 288°
2026-05-04 21:46 29.99574 -90.27698 1 ft 19 kts 317°
2026-05-04 21:47 29.99645 -90.27693 1 ft 0 kts 15°
2026-05-04 21:47 29.99647 -90.27692 1 ft 2 kts 15°
2026-05-04 21:47 29.99693 -90.27677 3 ft 10 kts 19°
2026-05-04 21:47 29.99744 -90.27616 4 ft 12 kts 74°
2026-05-04 21:48 29.99733 -90.27510 3 ft 15 kts 104°
2026-05-04 21:48 29.99701 -90.27387 4 ft 17 kts 106°
2026-05-04 21:48 29.99669 -90.27250 4 ft 19 kts 105°
2026-05-04 21:48 29.99648 -90.27163 5 ft 0 kts 105°
2026-05-04 21:49 29.99640 -90.27130 6 ft 7 kts 105°
2026-05-04 21:49 29.99625 -90.27069 7 ft 11 kts 105°
2026-05-04 21:49 29.99600 -90.26965 10 ft 15 kts 106°
2026-05-04 21:49 29.99569 -90.26842 10 ft 17 kts 105°
2026-05-04 21:50 29.99534 -90.26699 9 ft 20 kts 106°
2026-05-04 21:50 29.99584 -90.26575 8 ft 19 kts 19°
2026-05-04 21:50 29.99669 -90.26513 7 ft 13 kts 102°
2026-05-04 21:50 29.99647 -90.26420 7 ft 11 kts 105°
2026-05-04 21:51 29.99681 -90.26377 6 ft 0 kts 19°